Wind_Speed
5 5 5 5 5 5 5 5 4 5 5 4 3 3 3 3 2 2 2 2 3 3 3 3 3 4 4 4 3 4 4 5 5 5 5 6 6 6 6 5 5 5 6
4 5 5 5 4 4 5 4 4 4 4 4 3 3 3 2 2 2 2 3 3 3 3 4 4 4 4 4 5 5 6 6 7 7 8 8 8 7 7 7 7 7 7
4 4 5 4 4 4 4 4 4 4 4 3 3 3 3 2 2 2 3 3 4 4 4 5 5 6 6 6 6 7 7 8 9 9 9 9 9 9 9 9 9 9 9
4 4 4 4 4 4 4 4 4 4 4 3 3 3 3 3 3 3 4 4 5 6 6 7 7 7 7 8 8 8 9 10 10 10 10 10 10 10 11 11 11 11 11
4 4 4 4 4 4 5 4 4 4 4 4 4 4 5 5 5 5 5 6 6 7 7 8 8 9 9 9 9 10 11 11 11 11 11 11 11 11 12 12 12 13 13
3 3 4 4 4 4 5 5 5 5 5 5 5 6 6 6 7 7 7 7 8 8 8 9 9 10 10 11 11 11 12 12 12 13 13 12 13 13 14 14 14 14 15
3 3 4 5 5 5 6 6 6 6 7 7 7 7 7 8 8 8 9 9 9 9 10 10 10 12 12 13 13 13 13 13 14 14 14 15 15 15 16 16 16 16 17
4 4 4 5 6 6 7 8 8 8 8 9 8 8 8 9 10 10 10 11 11 12 12 12 12 13 14 14 14 14 14 14 15 16 17 17 17 17 18 18 18 18 19
4 4 5 5 7 8 8 8 9 9 9 10 10 10 10 10 11 11 12 12 12 13 13 13 14 14 15 15 15 15 15 16 17 17 18 18 18 19 19 19 19 20 20
4 5 5 6 7 7 8 9 10 10 10 10 11 11 12 12 12 12 13 13 13 14 14 14 14 15 16 16 16 17 17 17 18 18 19 19 20 20 20 20 21 21 21
5 6 6 7 8 8 9 10 11 11 11 12 12 12 13 13 13 14 14 15 15 14 15 15 15 16 17 17 17 17 17 17 18 18 18 20 20 20 21 21 21 21 22
5 6 7 8 9 9 10 10 10 11 12 13 13 14 15 15 15 15 15 16 16 16 16 17 17 18 17 18 19 19 19 19 19 19 20 20 20 20 20 19 20 20 21
6 7 7 8 9 9 10 10 11 11 12 12 13 14 14 15 16 16 16 17 18 18 18 18 18 18 18 19 18 19 20 21 21 21 21 21 21 21 21 21 22 23 24
7 8 8 8 9 10 11 11 12 12 12 12 12 13 15 15 16 16 17 18 18 18 18 18 18 19 19 19 19 20 21 21 21 21 21 21 21 22 22 24 25 26 27
8 9 9 10 10 10 11 12 12 13 13 13 13 13 14 15 16 17 17 18 17 17 18 18 18 19 20 20 20 21 21 21 21 22 21 22 23 23 24 25 26 27 28
8 8 9 10 10 10 11 12 12 13 14 14 14 15 15 16 16 17 17 17 17 17 18 19 20 20 20 21 21 20 21 21 22 23 24 24 24 25 25 25 26 27 28
9 9 10 10 10 11 11 11 12 13 14 14 14 15 16 16 17 16 17 17 17 17 17 19 20 20 21 21 21 22 22 22 23 24 24 24 25 25 26 27 27 28 29
10 10 10 11 11 11 11 12 13 14 14 14 14 14 15 15 15 16 16 17 17 18 18 18 19 20 21 21 21 23 23 23 24 24 25 25 25 26 27 28 28 28 29
11 11 11 12 12 12 12 13 13 14 14 14 15 15 16 16 16 16 16 17 18 18 18 18 20 20 21 21 21 22 23 24 24 25 25 25 26 26 28 28 28 28 28
12 12 12 13 13 13 13 13 13 14 14 15 15 16 16 16 17 17 17 17 18 18 19 20 20 20 21 22 22 23 24 24 25 26 27 27 28 28 29 29 29 28 28
13 13 14 14 14 14 14 14 14 15 15 16 16 17 17 17 18 18 19 19 19 20 20 20 21 21 22 22 23 24 25 25 26 27 27 28 29 29 29 29 29 29 29
15 15 15 16 16 16 15 15 16 16 17 16 17 18 18 19 19 20 20 20 21 21 21 21 21 22 23 24 25 25 25 26 27 28 28 28 29 29 29 30 30 30 31
16 17 17 17 18 17 17 16 17 18 18 18 18 18 19 19 20 21 21 22 22 22 22 22 22 23 24 25 26 26 27 27 28 28 29 29 29 30 30 30 30 31 31
18 18 18 18 19 19 18 18 18 19 18 19 19 20 20 20 21 21 21 22 22 22 23 23 24 25 25 26 27 28 28 29 29 29 30 30 30 31 31 32 32 32 31
20 20 20 21 21 20 20 20 20 20 20 20 20 21 21 21 22 23 23 23 23 24 25 25 26 26 27 27 28 29 29 29 30 30 30 31 31 32 32 32 32 31 31
22 22 22 22 23 23 22 22 22 22 22 22 22 22 23 24 24 24 24 25 25 26 27 27 28 28 28 29 29 29 30 30 30 30 31 32 32 33 33 32 32 31 31
Wind_Direction
157 159 155 158 156 157 154 153 151 151 158 161 160 159 162 166 175 197 209 222 233 243 248 244 246 245 249 257 255 257 258 264 265 271 278 284 287 289 288 289 287 286 291
159 157 160 164 169 170 171 170 167 166 172 175 179 179 182 186 200 219 232 243 248 257 262 258 256 263 266 266 262 266 267 268 271 273 277 281 280 280 279 281 282 285 285
161 158 159 167 176 178 180 184 184 184 189 195 198 203 207 216 235 251 260 261 257 259 264 264 266 268 273 278 276 273 275 275 275 275 278 279 277 276 276 277 279 282 283
178 177 177 184 192 194 193 197 199 200 204 211 217 226 232 241 254 266 272 267 266 267 266 266 269 272 276 279 277 277 277 276 277 277 278 280 280 277 276 276 279 281 282
191 194 198 201 207 203 206 207 207 212 223 230 236 244 250 256 264 269 273 275 275 274 271 269 271 274 276 279 279 280 281 277 278 279 279 281 282 280 278 277 279 281 281
206 210 213 208 212 214 219 222 224 229 240 248 255 258 261 264 270 273 274 277 279 276 274 272 271 273 276 278 281 282 282 279 279 280 279 278 278 279 277 276 276 277 279
221 227 229 230 230 230 231 234 238 244 248 253 260 262 265 269 272 277 277 277 280 280 278 276 275 275 277 278 281 283 282 280 279 280 280 279 278 278 277 276 275 277 279
237 243 247 245 246 247 244 245 250 254 254 255 260 264 268 271 272 276 277 277 279 282 283 279 280 279 278 279 280 283 282 281 281 282 282 280 278 278 277 276 275 277 277
256 251 252 256 257 257 257 256 257 259 259 261 263 263 266 271 275 277 277 278 278 279 280 281 280 279 279 279 279 281 282 282 283 283 282 281 280 280 278 276 275 276 276
266 261 263 261 262 262 262 264 265 264 261 262 265 266 266 270 275 277 279 280 281 281 280 280 280 281 281 280 280 281 281 282 285 284 281 282 281 280 277 277 277 276 276
275 269 269 265 266 266 270 271 270 269 265 265 267 270 271 271 273 275 276 279 281 281 279 279 279 281 284 283 283 282 283 285 287 287 285 284 283 281 278 276 279 277 277
286 278 274 273 272 272 274 278 276 275 271 272 271 271 272 270 272 273 275 277 278 279 280 280 280 281 283 283 282 281 281 284 286 286 285 286 286 285 283 281 281 279 279
296 288 283 282 280 279 280 281 280 278 277 276 276 275 274 272 273 275 274 275 277 278 280 281 280 282 283 284 284 282 283 284 285 287 287 286 285 284 282 283 283 280 280
299 295 290 287 283 282 284 284 285 283 282 281 280 280 278 274 275 276 277 277 278 278 281 282 279 280 284 284 283 284 284 282 283 285 286 287 286 285 284 283 281 280 281
307 301 298 291 289 288 287 287 285 285 283 281 281 282 282 280 281 279 279 280 281 279 278 280 280 281 283 284 284 285 285 283 284 285 285 285 285 286 286 285 283 282 283
312 309 304 299 291 292 292 291 288 289 288 285 282 283 285 283 281 282 282 283 282 280 279 280 283 283 284 286 286 286 285 284 284 286 286 286 286 287 287 287 285 285 284
319 316 315 311 307 302 297 293 294 291 292 289 287 286 288 289 286 284 284 285 283 281 281 281 282 284 286 287 287 286 286 286 287 287 288 288 287 287 287 287 287 285 284
315 312 311 310 310 308 301 295 296 296 295 292 291 292 294 294 294 289 287 285 285 286 286 285 284 285 285 284 285 284 286 289 289 289 289 290 290 289 288 288 289 288 287
314 315 313 312 310 307 303 298 296 296 296 294 293 294 294 294 293 294 292 292 291 290 288 289 288 286 285 285 286 285 286 289 290 291 291 291 291 291 289 289 288 288 288
313 313 313 314 313 308 303 301 298 295 294 295 296 296 295 294 293 293 292 294 294 291 289 289 290 290 288 288 288 289 288 290 290 291 291 291 291 291 291 290 288 288 288
311 311 312 312 313 309 304 300 301 298 297 296 296 297 297 295 295 293 291 291 292 293 292 290 290 290 291 291 290 291 292 292 293 293 293 292 292 293 293 292 291 290 290
309 309 309 309 310 307 303 299 298 299 299 298 297 298 297 295 294 293 292 291 292 293 294 292 291 290 291 292 291 292 293 294 294 294 293 294 295 294 294 294 292 292 293
307 307 307 307 307 305 301 298 297 298 300 298 297 297 297 296 294 293 293 292 293 294 294 293 291 291 291 293 293 293 294 295 295 295 294 294 294 295 296 294 293 293 293
305 303 303 304 305 306 302 298 298 297 297 296 296 295 295 296 295 294 294 293 293 293 293 293 291 292 293 293 293 293 293 293 294 295 295 295 295 295 294 293 293 293 293
304 301 299 301 302 302 302 300 298 297 296 295 296 296 295 295 295 295 294 293 293 293 293 293 293 293 293 293 293 293 293 292 293 293 294 295 296 296 295 295 295 294 293
299 299 299 299 300 300 300 299 297 297 297 296 296 296 295 293 294 294 293 293 294 294 294 293 293 292 292 292 292 292 293 292 293 293 294 295 296 296 295 295 295 294 294
Height
5900 5900 5901 5902 5902 5903 5903 5904 5904 5905 5905 5906 5906 5907 5907 5907 5907 5908 5908 5908 5908 5908 5908 5908 5908 5908 5908 5907 5907 5908 5908 5908 5908 5908 5908 5907 5907 5907 5906 5906 5906 5906 5905
5900 5901 5901 5902 5903 5903 5904 5904 5904 5905 5905 5906 5906 5907 5907 5907 5907 5907 5907 5907 5907 5907 5907 5907 5907 5907 5907 5907 5907 5907 5907 5907 5907 5906 5906 5906 5906 5905 5905 5905 5905 5904 5904
5900 5901 5901 5902 5903 5903 5904 5904 5904 5905 5905 5906 5906 5906 5907 5907 5907 5907 5907 5907 5906 5906 5906 5906 5906 5906 5906 5905 5905 5905 5905 5905 5905 5905 5904 5904 5904 5903 5903 5903 5903 5903 5902
5901 5901 5902 5902 5903 5903 5903 5904 5904 5905 5905 5906 5906 5906 5906 5906 5906 5906 5906 5906 5906 5905 5905 5905 5905 5905 5904 5904 5904 5904 5903 5903 5903 5903 5902 5902 5901 5901 5901 5901 5901 5900 5900
5900 5901 5901 5902 5902 5903 5903 5903 5904 5904 5905 5905 5905 5905 5905 5906 5905 5905 5905 5905 5904 5904 5904 5903 5903 5903 5903 5902 5902 5902 5901 5901 5901 5900 5900 5900 5899 5899 5899 5898 5898 5898 5897
5900 5900 5901 5901 5902 5902 5903 5903 5903 5903 5903 5904 5904 5904 5904 5904 5904 5904 5904 5903 5903 5902 5902 5902 5901 5901 5900 5900 5900 5899 5899 5898 5898 5898 5897 5897 5896 5896 5896 5895 5895 5894 5894
5899 5900 5900 5901 5901 5901 5901 5902 5902 5902 5902 5902 5902 5903 5903 5902 5902 5902 5902 5901 5901 5900 5900 5899 5899 5898 5898 5898 5897 5897 5896 5895 5895 5894 5894 5894 5893 5893 5892 5892 5891 5891 5890
5899 5899 5899 5899 5900 5900 5900 5900 5900 5901 5901 5901 5901 5901 5901 5901 5900 5900 5900 5899 5899 5898 5898 5897 5896 5896 5895 5895 5894 5894 5893 5892 5892 5891 5891 5890 5890 5889 5888 5888 5887 5887 5886
5898 5898 5898 5898 5898 5898 5899 5899 5899 5899 5899 5899 5899 5899 5899 5899 5898 5898 5897 5896 5896 5895 5895 5894 5893 5893 5892 5891 5891 5890 5890 5889 5888 5888 5887 5886 5886 5885 5884 5883 5883 5882 5881
5897 5897 5897 5897 5897 5897 5897 5897 5897 5897 5897 5897 5897 5896 5896 5896 5895 5895 5895 5894 5893 5892 5892 5891 5890 5889 5888 5888 5887 5887 5886 5885 5884 5883 5883 5882 5881 5880 5879 5878 5878 5877 5876
5896 5895 5895 5895 5895 5895 5895 5894 5894 5894 5894 5894 5894 5894 5893 5893 5892 5892 5891 5891 5890 5889 5888 5887 5887 5886 5885 5884 5883 5883 5882 5881 5880 5879 5878 5877 5876 5875 5874 5873 5873 5872 5871
5894 5894 5894 5893 5893 5893 5893 5892 5892 5891 5891 5891 5891 5890 5890 5889 5889 5888 5887 5887 5886 5885 5884 5883 5883 5882 5881 5880 5879 5878 5878 5877 5876 5875 5874 5873 5871 5870 5869 5868 5867 5866 5865
5893 5892 5892 5892 5891 5891 5890 5889 5889 5888 5888 5888 5887 5887 5886 5886 5885 5884 5883 5883 5882 5881 5880 5879 5878 5877 5876 5875 5875 5874 5873 5872 5871 5870 5869 5867 5866 5865 5864 5863 5862 5861 5860
5891 5890 5890 5889 5889 5888 5888 5887 5886 5885 5885 5885 5884 5883 5883 5882 5881 5880 5879 5878 5877 5876 5875 5874 5873 5872 5872 5871 5870 5869 5868 5867 5866 5865 5864 5863 5861 5860 5859 5858 5856 5855 5853
5889 5889 5888 5887 5886 5886 5885 5884 5883 5883 5882 5882 5881 5880 5879 5878 5877 5876 5875 5874 5873 5872 5871 5870 5869 5868 5867 5866 5865 5864 5863 5862 5861 5860 5858 5857 5856 5854 5853 5852 5850 5848 5847
5888 5887 5885 5884 5883 5883 5882 5881 5880 5880 5879 5878 5877 5876 5875 5874 5873 5872 5871 5869 5868 5867 5866 5865 5864 5863 5862 5861 5859 5858 5857 5856 5855 5854 5852 5851 5849 5848 5846 5845 5844 5842 5840
5886 5885 5883 5882 5881 5880 5879 5878 5877 5876 5876 5875 5874 5873 5872 5870 5869 5868 5867 5865 5864 5863 5862 5861 5859 5858 5857 5856 5854 5853 5852 5850 5849 5847 5846 5844 5843 5841 5840 5838 5837 5835 5833
5884 5883 5882 5880 5879 5877 5876 5875 5874 5873 5872 5871 5870 5869 5868 5867 5865 5864 5863 5861 5860 5858 5857 5856 5854 5853 5852 5850 5849 5847 5846 5844 5843 5841 5839 5838 5836 5834 5833 5831 5830 5828 5826
5882 5881 5879 5878 5876 5875 5873 5872 5871 5870 5869 5868 5867 5866 5864 5863 5862 5860 5859 5857 5856 5854 5852 5851 5850 5848 5847 5845 5843 5842 5840 5838 5836 5835 5833 5831 5829 5827 5826 5824 5822 5820 5818
5880 5879 5877 5875 5873 5871 5870 5869 5868 5867 5866 5864 5863 5862 5860 5859 5858 5856 5855 5853 5851 5849 5848 5846 5845 5843 5841 5839 5838 5836 5834 5832 5830 5828 5826 5824 5822 5820 5818 5816 5814 5812 5810
5878 5876 5874 5873 5870 5869 5867 5866 5864 5863 5862 5861 5859 5858 5856 5855 5853 5852 5850 5849 5847 5845 5843 5841 5840 5838 5836 5834 5832 5830 5828 5826 5824 5822 5820 5817 5815 5813 5811 5808 5806 5804 5802
5875 5873 5871 5869 5867 5865 5864 5862 5861 5860 5858 5856 5855 5853 5852 5850 5848 5847 5845 5844 5842 5840 5838 5836 5834 5832 5831 5829 5826 5824 5822 5820 5818 5816 5813 5810 5808 5806 5803 5801 5798 5796 5794
5872 5870 5868 5866 5864 5862 5860 5858 5857 5855 5854 5852 5850 5848 5847 5845 5843 5842 5840 5838 5836 5834 5833 5831 5829 5827 5824 5822 5820 5818 5815 5813 5811 5808 5806 5803 5800 5798 5795 5793 5790 5788 5785
5868 5866 5864 5862 5860 5858 5856 5854 5852 5851 5849 5847 5845 5843 5841 5840 5838 5836 5834 5832 5830 5828 5826 5824 5823 5820 5818 5815 5813 5811 5808 5806 5803 5801 5798 5796 5793 5790 5787 5784 5782 5779 5776
5864 5862 5860 5858 5856 5854 5852 5850 5848 5846 5844 5842 5840 5838 5836 5834 5832 5830 5828 5826 5824 5822 5819 5817 5815 5813 5811 5808 5806 5804 5801 5798 5796 5793 5790 5788 5785 5782 5779 5776 5773 5770 5767
5859 5857 5855 5854 5852 5849 5847 5845 5843 5841 5839 5837 5834 5832 5830 5828 5826 5824 5822 5820 5817 5815 5813 5810 5808 5806 5803 5801 5798 5796 5793 5791 5788 5785 5782 5780 5777 5774 5771 5767 5764 5761 5758